Vorticity
4 3 5 4 4 13 20 12 -0 1 2 3 2 1 2 3 4 6 5 3 3 4 2 9 2 2 2 2 1 2 8 6 5 7 7 8 7 5 4 4 4 4 4
3 4 4 1 5 4 4 15 22 9 1 2 2 2 2 2 3 2 5 6 3 3 4 1 10 1 2 3 2 1 3 6 6 6 7 7 7 6 6 5 5 5 4
3 2 3 5 3 2 4 1 2 11 19 25 10 1 2 2 2 3 1 2 7 3 4 5 -0 8 3 2 2 3 2 2 5 6 5 6 6 6 5 5 5 6 5
3 4 4 3 4 4 5 4 2 1 2 5 13 21 7 2 3 2 3 1 1 6 4 3 5 1 5 3 3 2 2 2 2 2 5 6 6 6 6 6 6 5 5
4 3 3 4 3 4 3 3 4 4 2 3 2 3 15 17 7 1 3 2 2 1 2 5 3 3 2 3 4 3 2 2 2 2 2 3 3 4 5 6 6 6 5
1 2 2 3 1 3 1 3 4 4 4 3 4 4 3 2 16 15 5 -0 2 3 2 -0 4 4 3 3 2 4 4 3 2 2 3 3 3 1 2 4 5 4 5
5 3 4 3 3 3 3 3 3 3 2 3 4 3 4 5 7 -1 14 13 5 1 1 2 1 1 4 3 3 3 3 4 3 3 2 3 3 4 2 1 1 3 3
4 4 4 3 3 4 3 5 2 2 2 2 2 3 4 6 5 9 5 3 13 14 3 2 2 1 2 3 2 2 3 3 3 3 3 2 2 3 4 3 2 2 2
3 4 4 4 6 5 4 3 5 2 2 3 1 4 1 0 6 1 3 6 8 5 17 13 1 1 1 1 3 3 2 2 3 3 3 3 3 2 3 4 4 3 3
4 4 5 5 0 7 3 5 0 5 4 2 3 -2 -2 3 2 -2 2 4 2 5 4 5 15 13 3 4 3 2 2 3 2 2 3 3 4 3 3 4 4 4 4
7 6 5 4 5 4 9 6 3 2 0 5 3 3 1 2 2 2 3 3 3 4 5 4 4 7 16 8 5 5 3 2 3 3 3 3 3 4 4 3 3 4 5
13 26 20 8 5 4 1 5 9 4 5 3 1 6 4 4 2 3 5 3 3 5 5 7 3 3 4 12 9 4 6 5 3 3 4 4 3 3 4 4 4 3 4
12 16 14 10 16 21 15 2 6 8 6 4 5 4 8 8 11 6 15 -0 3 6 8 7 7 9 8 5 10 9 5 6 4 2 1 2 5 4 3 4 5 4 4
1 -3 -1 1 9 15 10 15 19 8 6 9 4 -1 4 5 4 12 -1 -6 6 8 11 8 13 14 6 8 10 13 12 8 4 7 4 3 3 4 5 5 4 5 4
1 -1 -1 0 1 1 3 13 10 13 17 10 7 8 2 -1 25 1 3 6 9 3 3 6 1 4 7 6 7 6 7 10 10 7 9 5 2 2 5 6 6 5 5
2 2 2 3 3 -0 0 -1 5 9 10 13 15 6 8 11 -18 4 13 -0 4 11 -8 5 6 -2 1 2 6 7 5 10 13 11 9 7 7 4 2 5 7 5 6
1 1 0 0 0 3 5 1 1 5 8 7 13 12 10 6 7 5 -8 -2 2 0 -3 9 2 4 11 8 7 10 9 4 11 7 10 14 4 9 5 5 2 9 6
3 2 1 3 1 2 2 4 5 1 3 12 4 10 15 11 8 7 6 2 -3 8 -1 2 3 3 0 -1 -1 -0 4 6 1 10 24 -5 18 5 5 7 7 2 8
11 11 11 9 8 6 5 4 5 6 1 3 13 5 4 19 11 10 8 4 9 1 -1 3 8 4 10 4 4 6 4 -1 10 18 0 5 11 7 7 10 9 6 6
4 3 3 6 5 5 7 7 7 6 5 2 1 9 8 -2 15 17 10 11 7 13 1 4 3 4 -2 -3 -0 2 -3 1 3 0 15 7 2 6 -2 2 3 9 8
4 3 3 2 2 6 9 7 8 10 6 4 6 3 6 12 3 4 20 11 13 10 10 0 2 8 11 9 7 4 2 3 3 6 7 3 10 -3 -11 -6 -26 31 27
22 25 23 11 6 8 2 9 10 8 8 7 7 5 6 10 7 4 6 17 14 8 14 11 11 6 7 7 8 10 12 8 5 -2 6 5 2 8 13 9 9 -8 14
46 52 53 59 58 60 39 19 26 16 18 11 6 3 4 10 9 2 9 5 19 19 8 12 11 9 11 7 8 7 13 16 12 7 10 7 5 10 9 1 23 16 -11
24 10 32 36 33 32 27 36 41 42 14 20 9 7 7 10 4 10 10 8 9 16 17 5 12 9 11 8 10 7 12 15 11 9 6 2 1 15 16 12 23 10 -9
11 22 25 29 29 33 37 27 25 13 17 27 23 19 5 8 10 7 3 10 17 16 14 10 9 15 9 -2 10 12 8 11 9 5 11 13 11 21 16 20 28 21 0
28 23 21 37 15 4 3 15 21 17 10 19 18 3 10 15 25 23 15 9 13 11 11 8 8 9 10 13 7 7 8 7 5 8 13 16 24 17 13 3 14 9 18
Height
5861 5861 5861 5861 5861 5861 5862 5863 5864 5865 5866 5867 5868 5869 5870 5870 5871 5871 5871 5872 5872 5872 5871 5871 5871 5870 5870 5870 5869 5869 5868 5867 5867 5867 5867 5867 5868 5868 5868 5868 5868 5868 5867
5857 5858 5859 5859 5859 5859 5860 5860 5861 5862 5863 5866 5867 5867 5868 5868 5869 5870 5870 5870 5870 5870 5870 5870 5869 5869 5869 5869 5869 5868 5868 5867 5867 5866 5866 5866 5867 5867 5867 5867 5867 5866 5866
5854 5855 5856 5856 5857 5857 5858 5858 5859 5859 5860 5862 5864 5864 5865 5866 5867 5867 5868 5868 5868 5868 5868 5868 5868 5868 5868 5868 5867 5867 5867 5867 5866 5866 5866 5865 5866 5866 5866 5866 5866 5866 5866
5850 5851 5852 5853 5854 5854 5855 5856 5856 5857 5857 5858 5858 5859 5861 5862 5863 5864 5865 5866 5866 5866 5867 5867 5866 5866 5866 5866 5866 5866 5866 5866 5865 5865 5865 5865 5865 5865 5865 5865 5865 5864 5864
5846 5847 5848 5850 5851 5851 5852 5853 5853 5854 5854 5855 5855 5856 5857 5858 5859 5861 5862 5863 5864 5864 5864 5864 5865 5864 5864 5864 5864 5864 5864 5864 5864 5864 5863 5863 5864 5863 5863 5863 5863 5863 5862
5842 5843 5844 5846 5847 5848 5849 5850 5850 5851 5850 5851 5852 5853 5853 5855 5855 5856 5858 5859 5860 5860 5861 5861 5862 5862 5862 5862 5862 5862 5862 5862 5862 5862 5862 5862 5861 5861 5861 5862 5861 5861 5860
5837 5838 5839 5841 5842 5843 5844 5845 5846 5847 5847 5847 5848 5849 5849 5849 5851 5852 5852 5854 5855 5855 5857 5858 5858 5858 5859 5859 5859 5859 5859 5859 5859 5859 5859 5859 5859 5859 5859 5859 5859 5859 5858
5831 5832 5834 5835 5838 5839 5840 5840 5841 5842 5842 5843 5844 5845 5845 5845 5846 5846 5847 5848 5849 5850 5851 5852 5853 5854 5855 5855 5855 5855 5855 5856 5856 5856 5856 5856 5856 5856 5856 5856 5856 5856 5856
5824 5825 5826 5829 5831 5833 5834 5835 5835 5835 5837 5838 5839 5840 5841 5841 5841 5842 5843 5844 5844 5844 5844 5846 5847 5849 5850 5851 5851 5851 5851 5852 5852 5852 5852 5852 5852 5852 5852 5852 5852 5852 5853
5818 5819 5819 5820 5822 5825 5827 5829 5830 5831 5831 5831 5832 5833 5835 5836 5836 5836 5838 5839 5840 5840 5839 5840 5840 5842 5843 5844 5845 5846 5846 5847 5847 5847 5848 5848 5848 5848 5848 5848 5848 5848 5848
5812 5812 5813 5813 5814 5815 5818 5820 5822 5823 5824 5825 5826 5826 5828 5829 5830 5831 5832 5833 5834 5834 5834 5834 5835 5836 5837 5838 5839 5839 5839 5840 5842 5843 5843 5843 5843 5844 5844 5843 5843 5844 5844
5805 5805 5806 5807 5807 5808 5809 5811 5813 5815 5816 5817 5818 5819 5821 5822 5823 5824 5825 5826 5827 5829 5829 5829 5830 5830 5831 5832 5832 5833 5834 5834 5835 5836 5838 5838 5839 5839 5839 5839 5838 5838 5838
5799 5799 5800 5800 5800 5801 5801 5802 5805 5807 5808 5809 5809 5811 5813 5816 5816 5817 5817 5818 5820 5821 5823 5823 5824 5825 5824 5825 5826 5827 5828 5829 5829 5830 5831 5832 5833 5833 5833 5834 5834 5833 5833
5791 5792 5793 5793 5793 5793 5793 5793 5795 5797 5799 5800 5800 5802 5804 5805 5807 5808 5809 5811 5812 5814 5814 5815 5816 5818 5818 5819 5819 5820 5821 5821 5822 5823 5824 5824 5825 5827 5828 5828 5828 5828 5828
5781 5782 5783 5785 5785 5785 5786 5785 5786 5786 5788 5790 5792 5793 5796 5798 5796 5798 5800 5801 5804 5805 5807 5807 5808 5809 5810 5811 5812 5813 5813 5814 5815 5816 5816 5817 5818 5818 5819 5821 5822 5822 5822
5770 5771 5772 5774 5775 5775 5777 5776 5777 5777 5778 5779 5781 5783 5785 5787 5788 5788 5791 5794 5794 5797 5798 5798 5800 5801 5803 5804 5803 5804 5804 5805 5805 5806 5808 5809 5810 5811 5811 5813 5814 5815 5816
5759 5759 5759 5760 5762 5764 5764 5765 5767 5767 5767 5768 5770 5771 5772 5775 5777 5778 5783 5784 5784 5786 5789 5790 5792 5791 5793 5794 5795 5794 5795 5795 5795 5797 5798 5800 5802 5802 5804 5805 5806 5807 5808
5745 5744 5744 5745 5746 5748 5750 5752 5754 5756 5757 5757 5759 5760 5761 5762 5764 5766 5769 5772 5773 5774 5776 5779 5782 5783 5783 5783 5785 5785 5785 5785 5785 5786 5787 5789 5791 5793 5794 5795 5796 5797 5799
5730 5729 5729 5727 5729 5731 5733 5736 5740 5742 5744 5745 5746 5748 5749 5750 5751 5752 5755 5757 5760 5762 5764 5767 5771 5773 5773 5773 5774 5774 5774 5775 5776 5776 5776 5778 5780 5782 5784 5786 5787 5788 5790
5711 5710 5710 5710 5710 5711 5713 5716 5721 5726 5729 5731 5733 5736 5737 5738 5739 5741 5743 5746 5747 5749 5754 5755 5759 5761 5762 5762 5762 5763 5762 5764 5764 5765 5766 5766 5770 5772 5773 5774 5776 5778 5779
5689 5687 5686 5687 5688 5690 5693 5698 5703 5708 5713 5715 5718 5721 5724 5726 5728 5729 5730 5733 5735 5737 5739 5743 5745 5747 5749 5750 5749 5749 5751 5752 5753 5754 5754 5757 5760 5762 5763 5762 5764 5764 5767
5662 5658 5657 5659 5662 5665 5671 5681 5683 5689 5695 5699 5704 5707 5708 5711 5715 5717 5718 5720 5721 5724 5727 5730 5732 5734 5736 5737 5737 5736 5738 5741 5742 5745 5746 5745 5745 5747 5748 5750 5751 5753 5756
5642 5636 5631 5631 5633 5640 5648 5657 5666 5674 5679 5684 5687 5692 5696 5699 5702 5705 5707 5708 5709 5710 5714 5716 5719 5720 5722 5723 5723 5723 5725 5727 5730 5732 5732 5732 5732 5732 5734 5736 5737 5740 5742
5634 5629 5622 5618 5621 5625 5634 5642 5649 5657 5662 5667 5674 5681 5683 5687 5689 5692 5695 5695 5696 5697 5700 5703 5704 5706 5707 5709 5709 5711 5712 5713 5714 5716 5719 5720 5719 5720 5718 5721 5723 5725 5728
5629 5623 5618 5616 5618 5623 5628 5633 5639 5646 5652 5658 5663 5668 5672 5675 5678 5679 5681 5682 5682 5683 5686 5689 5691 5692 5693 5694 5695 5697 5699 5700 5700 5700 5702 5703 5705 5704 5704 5705 5707 5711 5715
5627 5623 5620 5618 5619 5622 5626 5630 5636 5641 5646 5649 5653 5659 5661 5664 5666 5668 5668 5668 5669 5670 5673 5675 5678 5678 5680 5681 5682 5684 5685 5686 5687 5686 5686 5689 5692 5691 5692 5694 5696 5701 5704